Weather Roundup
Issued by NWS

Home | Current Version | Previous Version | Text Only | Print | Product List | Glossary On
Versions: 1 2 3 4 5 6 7 8 9 10 11 12 13 14 15 16 17 18 19 20 21 22 23 24 25 26 27 28 29 30 31 32 33 34 35 36 37 38 39 40 41 42 43 44 45 46 47 48 49 50
382
NZUS93 KARX 230159
HRRWXR

CURRENT HOURLY OBSERVATIONS ACROSS
MUCH OF THE UPPER MISSISSIPPI VALLEY
NATIONAL WEATHER SERVICE LA CROSSE WI
900 PM CDT SAT JUL 22 2017


...SOUTHEAST MINNESOTA...


CITY           SKY/WX    TMP DP  RH WIND       PRES   REMARKS
ROCHESTER      PTCLDY    74  72  93 W7        29.85R
ROCHESTER/MAYO FAIR      78  72  82 W7        29.84R
WINONA         CLOUDY    73  70  88 SE5       29.82R
AUSTIN         PTCLDY    75  70  83 CALM      29.85R
ALBERT LEA     CLEAR     79  68  69 CALM      29.86R
DODGE CENTER   CLEAR     77  70  78 MISG      29.85
PRESTON        CLOUDY    75  68  79 NW6       29.85S
OWATONNA       CLEAR     75  70  83 W6        29.85R
FARIBAULT      CLEAR     77  66  69 CALM      29.85R
$$

...ELSEWHERE IN MINNESOTA...


CITY           SKY/WX    TMP DP  RH WIND       PRES   REMARKS
MINNEAPOLIS    PTCLDY    83  60  45 NW15G24   29.83R
INTNL FALLS    CLOUDY    67  58  72 W6        29.80R
DULUTH         PTCLDY    56  55  97 SE6       29.83R
RED WING       CLEAR     75  72  88 CALM      29.80R
REDWOOD FALLS  CLEAR     79  67  66 N3        29.85S
MANKATO        CLEAR     78  67  68 NW6       29.85S
WORTHINGTON    CLEAR     74  66  76 W8        29.91S
FAIRMONT       CLEAR     77  71  82 NW3       29.88R
$$

...SOUTHWEST WISCONSIN...


CITY           SKY/WX    TMP DP  RH WIND       PRES   REMARKS
LA CROSSE      TSTM      78  67  68 NW28G38   29.82R
PRAIRIE DU CHI PTCLDY    78  72  82 CALM      29.80F
BOSCOBEL       PTCLDY    76  74  93 CALM      29.81F
LONE ROCK      NOT AVBL
PLATTEVILLE    CLEAR     78  77  98 CALM      29.84R
FORT MC COY    PTCLDY    74  71  88 SW3       29.81S
MAUSTON-NEW LI PTCLDY    77  73  87 SW3       29.80S
VIROQUA        FAIR      75  72  92 S3        29.83F
WIS DELLS      PTCLDY    74  68  81 CALM      29.82R
$$

...ELSEWHERE IN WISCONSIN...


CITY           SKY/WX    TMP DP  RH WIND       PRES   REMARKS
MILWAUKEE      MOCLDY    73  68  84 SE6       29.83R
MADISON        MOCLDY    74  71  91 CALM      29.82R
GREEN BAY      MOCLDY    76  69  79 S13       29.78S
EAU CLAIRE     NOT AVBL
BLACK RVR FLS  FAIR      72  72 100 SW5       29.81F
MEDFORD        CLEAR     76  68  75 W3        29.81S
WAUSAU         PTCLDY    77  67  71 W6        29.78R
WIS RAPIDS     LGT RAIN  79  71  76 CALM      29.81R
MARSHFIELD     CLOUDY    76  68  76 W8        29.81R
RICE LAKE      PTCLDY    75  64  69 W5        29.83S
$$

...NORTHEAST IOWA...


CITY           SKY/WX    TMP DP  RH WIND       PRES   REMARKS
WATERLOO       CLOUDY    77  73  87 SW3       29.84R
DUBUQUE        PTCLDY    77  74  90 CALM      29.84S
DECORAH        CLOUDY    77  73  88 CALM      29.83R
MASON CITY     CLOUDY    78  73  84 NW7       29.88R
CHARLES CITY   CLOUDY    77  77 100 W5        29.86R
OELWEIN          N/A    N/A N/A N/A MISG        N/A
$$

...ELSEWHERE IN IOWA...


CITY           SKY/WX    TMP DP  RH WIND       PRES   REMARKS
DES MOINES     CLOUDY    83  73  72 N5        29.85S
IOWA CITY      CLEAR     80  73  79 W5        29.85R
FORT DODGE     CLOUDY    79  70  73 NW3       29.89R
MARSHALLTOWN   CLOUDY    77  76  96 SW3       29.86R
CEDAR RAPIDS   PTCLDY    75  75 100 W5        29.84R
$$

...NORTHERN ILLINOIS...


CITY           SKY/WX    TMP DP  RH WIND       PRES   REMARKS
CHICAGO-OHARE  PTCLDY    79  69  71 E7        29.81R
CHICAGO-MIDWAY PTCLDY    80  69  69 NE6       29.80S
MOLINE         CLOUDY    82  73  74 CALM      29.81F
ROCKFORD       PTCLDY    80  72  76 N5        29.83R
PEORIA         CLOUDY    82  78  88 NE3       29.80R HX  91
$$

NOTE: "FAIR" INDICATES FEW OR NO CLOUDS BELOW 12,000 FEET WITH NO
SIGNIFICANT WEATHER AND/OR OBSTRUCTIONS TO VISIBILITY. WIND
SPEEDS ARE IN MILES-PER-HOUR.




USA.gov is the U.S. government's official web portal to all federal, state and local government web resources and services.